Weather History for KCPK - March, 2013

Change the Weather History Date:

Saturday, March 30, 2013

  Actual Average (KORF) Record (KORF)
Temperature  
Mean Temperature 47 °F 53 °F  
Max Temperature 64 °F 63 °F 90 °F (1910)
Min Temperature 30 °F 44 °F 25 °F (1887)
Degree Days  
Heating Degree Days 18 12  
Month to date heating degree days 481  
Since 1 July heating degree days 3050  
Cooling Degree Days 0 0  
Month to date cooling degree days 0  
Year to date cooling degree days 1  
Moisture  
Dew Point 34 °F    
Average Humidity 61    
Maximum Humidity 100    
Minimum Humidity 24    
Precipitation  
Precipitation 0.00 in 0.12 in 1.72 in (1903)
Month to date precipitation 3.57  
Year to date precipitation 10.09  
Snow  
Snow 0.00 in 0.00 in 1.00 in (1941)
Month to date snowfall 0.2  
Since 1 July snowfall 5.8  
Snow Depth -    
Sea Level Pressure  
Sea Level Pressure 30.19 in    
Wind  
Wind Speed 3 mph (East)    
Max Wind Speed 12 mph    
Max Gust Speed 18 mph    
Visibility 10 miles    
Events      
T = Trace of Precipitation, MM = Missing Value Source: NWS Daily Summary

Daily Weather History Graph

Daily Weather History Graph

Search for Another Location

Airport or City:

Trip Planner

Search our weather history database for the weather conditions in past years. The results will help you decide how hot, cold, wet, or windy it might be!

Date:

Astronomy

Mar. 30, 2013 Rise Set
Actual Time 6:53 AM EDT 7:26 PM EDT
Civil Twilight 6:27 AM EDT 7:52 PM EDT
Nautical Twilight 5:57 AM EDT 8:22 PM EDT
Astronomical Twilight 5:26 AM EDT 8:53 PM EDT
Moon 11:23 PM EDT (3/30) 8:53 AM EDT (3/30)
Length of Visible Light 13h 24m
Length of Day
12h 32m
Waning Gibbous, 86% of the Moon is Illuminated
Mar 30
Waning Gibbous
Apr 3
Last Quarter
Apr 10
New
Apr 18
First Quarter
Apr 25
Full

Hourly Weather History & Observations

Time (EDT) Temp. Windchill Dew Point Humidity Pressure Visibility Wind Dir Wind Speed Gust Speed Precip Events Conditions
12:15 AM 42.8 °F - 37.4 °F 81% 30.24 in 10.0 mi North - - N/A   Overcast
12:35 AM 44.6 °F - 37.4 °F 76% 30.23 in 10.0 mi North - - N/A   Overcast
12:55 AM 44.6 °F - 37.4 °F 76% 30.23 in 10.0 mi North - - N/A   Overcast
1:15 AM 44.6 °F - 37.4 °F 76% 30.22 in 10.0 mi North - - N/A   Overcast
1:35 AM 44.6 °F - 37.4 °F 76% 30.21 in 10.0 mi North - - N/A   Overcast
1:55 AM 42.8 °F - 37.4 °F 81% 30.21 in 10.0 mi North - - N/A   Mostly Cloudy
2:15 AM 41.0 °F - 37.4 °F 87% 30.21 in 10.0 mi North - - N/A   Mostly Cloudy
2:35 AM 37.4 °F - 35.6 °F 93% 30.21 in 10.0 mi North - - N/A   Scattered Clouds
2:55 AM 39.2 °F - 37.4 °F 93% 30.21 in 10.0 mi North - - N/A   Mostly Cloudy
3:15 AM 39.2 °F - 37.4 °F 93% 30.21 in 10.0 mi North - - N/A   Mostly Cloudy
3:35 AM 37.4 °F - 37.4 °F 100% 30.21 in 10.0 mi North - - N/A   Mostly Cloudy
3:55 AM 39.2 °F - 37.4 °F 93% 30.20 in 10.0 mi North - - N/A   Mostly Cloudy
4:15 AM 37.4 °F - 35.6 °F 93% 30.20 in 10.0 mi North - - N/A   Scattered Clouds
4:35 AM 37.4 °F - 35.6 °F 93% 30.20 in 10.0 mi North - - N/A   Overcast
4:55 AM 37.4 °F - 35.6 °F 93% 30.19 in 10.0 mi North - - N/A   Overcast
5:15 AM 37.4 °F - 35.6 °F 93% 30.19 in 10.0 mi North - - N/A   Scattered Clouds
5:35 AM 35.6 °F - 35.6 °F 100% 30.19 in 10.0 mi North - - N/A   Scattered Clouds
5:55 AM 35.6 °F - 33.8 °F 93% 30.20 in 10.0 mi North - - N/A   Clear
6:15 AM 35.6 °F - 35.6 °F 100% 30.20 in 10.0 mi North - - N/A   Clear
6:35 AM 35.6 °F - 33.8 °F 93% 30.20 in 10.0 mi North - - N/A   Clear
6:55 AM 32.0 °F - 30.2 °F 93% 30.20 in 10.0 mi Calm Calm - N/A   Clear
7:15 AM 30.2 °F - 30.2 °F 100% 30.21 in 2.0 mi Calm Calm - N/A   Mostly Cloudy
7:35 AM 33.8 °F - 33.8 °F 100% 30.21 in 7.0 mi Calm Calm - N/A   Scattered Clouds
7:55 AM 35.6 °F - 35.6 °F 100% 30.22 in 10.0 mi Calm Calm - N/A   Scattered Clouds
8:15 AM 39.2 °F - 37.4 °F 93% 30.22 in 10.0 mi Calm Calm - N/A   Scattered Clouds
8:35 AM 42.8 °F - 39.2 °F 87% 30.22 in 10.0 mi Calm Calm - N/A   Clear
8:55 AM 44.6 °F - 41.0 °F 87% 30.23 in 10.0 mi Calm Calm - N/A   Clear
9:15 AM 46.4 °F - 39.2 °F 76% 30.23 in 10.0 mi Calm Calm - N/A   Clear
9:35 AM 50.0 °F - 39.2 °F 66% 30.23 in 10.0 mi Calm Calm - N/A   Clear
9:55 AM 51.8 °F - 37.4 °F 58% 30.22 in 10.0 mi Calm Calm - N/A   Clear
10:15 AM 53.6 °F - 35.6 °F 51% 30.22 in 10.0 mi Calm Calm - N/A   Clear
10:35 AM 57.2 °F - 35.6 °F 44% 30.22 in 10.0 mi Calm Calm - N/A   Clear
10:55 AM 57.2 °F - 32.0 °F 38% 30.22 in 10.0 mi Calm Calm - N/A   Clear
11:15 AM 60.8 °F - 26.6 °F 27% 30.22 in 10.0 mi North 4.6 mph - N/A   Clear
11:35 AM 60.8 °F - 28.4 °F 29% 30.22 in 10.0 mi North 6.9 mph - N/A   Clear
11:55 AM 60.8 °F - 26.6 °F 27% 30.21 in 10.0 mi North 3.5 mph - N/A   Clear
12:15 PM 60.8 °F - 26.6 °F 27% 30.20 in 10.0 mi West 4.6 mph - N/A   Clear
12:35 PM 62.6 °F - 28.4 °F 27% 30.19 in 10.0 mi NNW 8.1 mph - N/A   Clear
12:55 PM 62.6 °F - 28.4 °F 27% 30.19 in 10.0 mi Calm Calm - N/A   Clear
1:15 PM 60.8 °F - 28.4 °F 29% 30.19 in 10.0 mi Calm Calm - N/A   Clear
1:35 PM 62.6 °F - 28.4 °F 27% 30.18 in 10.0 mi Calm Calm - N/A   Scattered Clouds
1:55 PM 62.6 °F - 26.6 °F 26% 30.17 in 10.0 mi North 6.9 mph - N/A   Scattered Clouds
2:15 PM 62.6 °F - 26.6 °F 26% 30.16 in 10.0 mi WSW 3.5 mph - N/A   Scattered Clouds
2:35 PM 62.6 °F - 26.6 °F 26% 30.16 in 10.0 mi WNW 4.6 mph 18.4 mph N/A   Clear
2:55 PM 64.4 °F - 28.4 °F 26% 30.15 in 10.0 mi West 10.4 mph - N/A   Scattered Clouds
3:15 PM 64.4 °F - 26.6 °F 24% 30.14 in 10.0 mi West 5.8 mph - N/A   Mostly Cloudy
3:35 PM 62.6 °F - 28.4 °F 27% 30.14 in 10.0 mi North 4.6 mph - N/A   Mostly Cloudy
3:55 PM 62.6 °F - 26.6 °F 26% 30.15 in 10.0 mi NNW 3.5 mph - N/A   Mostly Cloudy
4:15 PM 62.6 °F - 33.8 °F 34% 30.15 in 10.0 mi ESE 10.4 mph - N/A   Mostly Cloudy
4:35 PM 60.8 °F - 32.0 °F 34% 30.14 in 10.0 mi East 8.1 mph - N/A   Mostly Cloudy
4:55 PM 60.8 °F - 33.8 °F 36% 30.14 in 10.0 mi East 10.4 mph - N/A   Mostly Cloudy
5:15 PM 57.2 °F - 32.0 °F 38% 30.14 in 10.0 mi East 11.5 mph - N/A   Scattered Clouds
5:35 PM 59.0 °F - 32.0 °F 36% 30.14 in 10.0 mi East 9.2 mph - N/A   Scattered Clouds
5:55 PM 57.2 °F - 32.0 °F 38% 30.14 in 10.0 mi East 11.5 mph - N/A   Scattered Clouds
6:15 PM 57.2 °F - 30.2 °F 36% 30.14 in 10.0 mi ESE 9.2 mph - N/A   Clear
6:35 PM 57.2 °F - 30.2 °F 36% 30.15 in 10.0 mi East 9.2 mph - N/A   Clear
6:55 PM 55.4 °F - 30.2 °F 38% 30.15 in 10.0 mi ESE 6.9 mph - N/A   Clear
7:15 PM 53.6 °F - 30.2 °F 41% 30.15 in 10.0 mi ESE 8.1 mph - N/A   Clear
7:35 PM 53.6 °F - 30.2 °F 41% 30.16 in 10.0 mi ESE 6.9 mph - N/A   Clear
7:55 PM 51.8 °F - 32.0 °F 47% 30.16 in 10.0 mi Calm Calm - N/A   Clear
8:15 PM 50.0 °F - 33.8 °F 54% 30.16 in 10.0 mi ESE 4.6 mph - N/A   Clear
8:35 PM 50.0 °F - 33.8 °F 54% 30.18 in 10.0 mi ESE 3.5 mph - N/A   Clear
8:55 PM 48.2 °F - 35.6 °F 62% 30.18 in 10.0 mi ESE 4.6 mph - N/A   Clear
9:15 PM 48.2 °F - 35.6 °F 62% 30.19 in 10.0 mi ESE 4.6 mph - N/A   Clear
9:35 PM 48.2 °F - 35.6 °F 62% 30.19 in 10.0 mi ESE 4.6 mph - N/A   Clear
9:55 PM 48.2 °F - 35.6 °F 62% 30.19 in 10.0 mi ESE 4.6 mph - N/A   Clear
10:15 PM 46.4 °F 45.2 °F 35.6 °F 66% 30.19 in 10.0 mi East 3.5 mph - N/A   Clear
10:35 PM 46.4 °F 44.3 °F 37.4 °F 71% 30.19 in 10.0 mi East 4.6 mph - N/A   Clear
10:55 PM 46.4 °F 44.3 °F 37.4 °F 71% 30.18 in 10.0 mi ESE 4.6 mph - N/A   Clear
11:35 PM 46.4 °F 44.3 °F 37.4 °F 71% 30.17 in 10.0 mi ESE 4.6 mph - N/A   Clear
11:55 PM 46.4 °F 44.3 °F 37.4 °F 71% 30.17 in 10.0 mi East 4.6 mph - N/A   Clear